Tahiti (NTAA)

Aerodrome — Elev 5
French Polynesia
S017.33.24.000 W149.36.40.800
Loading chart...

Current Weather

NTAA 100200Z 06011KT 9999 FEW025 SCT230 29/24 Q1008 NOSIG

Published 22 minutes ago

Airport Activity

Loading chart...
Loading chart...

Standard ATC Positions

CallsignRadio Name / Freq / Voice Room / TypeFrequencyVoice RoomType
NTTT_FSS Tahiti Radio
125.500
nttt_fss
125.500nttt_fss
NTAA_APP Tahiti Approach
121.300
ntaa_app
121.300ntaa_app
NTAA_TWR Tahiti Tower
118.100
ntaa_twr
118.100ntaa_twr
NTAA_GND Tahiti Ground
121.900
ntaa_gnd
121.900ntaa_gnd
NTAA_ATIS Tahiti ATIS
128.800
ntaa_atis
128.800ntaa_atis